User: anonymous   Login
Location: Bienfait
(49.1431°N, 102.8077°W)
Time: 07:13:38
(UTC+00:00)
Language:

Envisat - Orbit

View from above orbital plane
View from above orbital plane
View from above satellite
View from above satellite

Ground track
Ground track

The orbit data is extracted from the following two-line orbital elements,

1 27386U 02009A   22136.85925397  .00000250  00000-0  95843-4 0  9999
2 27386  98.1820 119.4516 0001304  85.8679 292.9113 14.38118874 58997
Epoch (UTC): 16 May 2022 20:37:19
Eccentricity: 0.0001304
inclination: 98.1820°
perigee height: 764 km
apogee height: 765 km
right ascension of ascending node: 119.4516°
argument of perigee: 85.8679°
revolutions per day: 14.38118874
mean anomaly at epoch: 292.9113°
orbit number at epoch: 5899

The dashed part of the orbit path shows where the satellite is in the earth's shadow,  

DLR